Rensselaer, IN

4:40 AM CST on February 27, 2017 (GMT -0600)
Jasper County

Weather History for KRZL - November, 2013

Change the Weather History Date:

Tuesday, November 5, 2013

  Actual Average (KIKK) Record (KIKK)
Temperature  
Mean Temperature 54 °F -  
Max Temperature 57 °F 52 °F 76 °F (1978)
Min Temperature 50 °F 34 °F 10 °F (1991)
Degree Days  
Heating Degree Days 12    
Growing Degree Days 4 (Base 50)    
Moisture  
Dew Point 45 °F    
Average Humidity 74    
Maximum Humidity 94    
Minimum Humidity 67    
Precipitation  
Precipitation 0.00 in - - ()
Sea Level Pressure  
Sea Level Pressure 30.22 in    
Wind  
Wind Speed 10 mph (SSE)    
Max Wind Speed 17 mph    
Max Gust Speed 23 mph    
Visibility 10 miles    
Events      
Averages and records for this station are not official NWS values.
T = Trace of Precipitation, MM = Missing Value Source: NWS Daily Summary

Daily Weather History Graph

Daily Weather History Graph

Search for Another Location

Airport or City:

Trip Planner

Search our weather history database for the weather conditions in past years. The results will help you decide how hot, cold, wet, or windy it might be!

Date:

Astronomy

Nov. 05, 2013 Rise Set
Actual Time 6:24 AM CST 4:39 PM CST
Civil Twilight 5:55 AM CST 5:08 PM CST
Nautical Twilight 5:22 AM CST 5:41 PM CST
Astronomical Twilight 4:50 AM CST 6:13 PM CST
Moon 8:39 AM CST (11/5) 6:40 PM CST (11/5)
Length of Visible Light 11h 12m
Length of Day
10h 15m
Waxing Crescent, 7% of the Moon is Illuminated
Nov 5
Waxing Crescent
Nov 9
First Quarter
Nov 17
Full
Nov 25
Last Quarter
Dec 2
New

Hourly Weather History & Observations

Time (CST) Temp. Dew Point Humidity Pressure Visibility Wind Dir Wind Speed Gust Speed Precip Events Conditions
12:15 AM 51.8 °F 41.0 °F 67% 30.25 in 10.0 mi South 12.7 mph - N/A   Overcast
12:35 AM 51.8 °F 41.0 °F 67% 30.26 in 10.0 mi South 11.5 mph - N/A   Overcast
12:55 AM 51.8 °F 41.0 °F 67% 30.25 in 10.0 mi South 10.4 mph - N/A   Overcast
1:15 AM 51.8 °F 41.0 °F 67% 30.26 in 10.0 mi South 10.4 mph - N/A   Overcast
1:35 AM 51.8 °F 41.0 °F 67% 30.26 in 10.0 mi South 11.5 mph - N/A   Overcast
1:55 AM 51.8 °F 41.0 °F 67% 30.27 in 10.0 mi South 9.2 mph - N/A   Overcast
2:15 AM 51.8 °F 42.8 °F 71% 30.26 in 10.0 mi South 9.2 mph - N/A   Overcast
2:35 AM 51.8 °F 42.8 °F 71% 30.27 in 10.0 mi South 10.4 mph - N/A   Overcast
2:55 AM 51.8 °F 42.8 °F 71% 30.27 in 10.0 mi South 10.4 mph - N/A   Overcast
3:15 AM 51.8 °F 42.8 °F 71% 30.27 in 10.0 mi South 9.2 mph - N/A   Overcast
3:35 AM 51.8 °F 42.8 °F 71% 30.28 in 10.0 mi South 10.4 mph - N/A   Overcast
3:55 AM 51.8 °F 42.8 °F 71% 30.28 in 10.0 mi South 9.2 mph - N/A   Overcast
4:15 AM 51.8 °F 42.8 °F 71% 30.28 in 10.0 mi South 9.2 mph - N/A   Overcast
4:35 AM 51.8 °F 42.8 °F 71% 30.28 in 10.0 mi South 8.1 mph - N/A   Overcast
4:55 AM 51.8 °F 42.8 °F 71% 30.29 in 10.0 mi South 8.1 mph - N/A   Overcast
5:15 AM 51.8 °F 44.6 °F 76% 30.28 in 10.0 mi South 6.9 mph - N/A   Overcast
5:35 AM 51.8 °F 44.6 °F 76% 30.28 in 10.0 mi South 6.9 mph - N/A   Overcast
5:55 AM 50.0 °F 44.6 °F 82% 30.28 in 10.0 mi SSE 3.5 mph - N/A   Overcast
6:15 AM 50.0 °F 44.6 °F 82% 30.28 in 10.0 mi SSE 3.5 mph - N/A   Overcast
6:35 AM 50.0 °F 44.6 °F 82% 30.29 in 10.0 mi SSE 3.5 mph - N/A   Overcast
6:55 AM 50.0 °F 44.6 °F 82% 30.30 in 10.0 mi SE 3.5 mph - N/A   Overcast
7:15 AM 50.0 °F 44.6 °F 82% 30.31 in 10.0 mi SSE 4.6 mph - N/A   Overcast
7:35 AM 50.0 °F 44.6 °F 82% 30.31 in 10.0 mi SSE 5.8 mph - N/A   Overcast
7:55 AM 50.0 °F 46.4 °F 87% 30.31 in 10.0 mi SSE 5.8 mph - N/A   Overcast
8:15 AM 51.8 °F 46.4 °F 82% 30.31 in 10.0 mi South 6.9 mph - N/A   Overcast
8:35 AM 51.8 °F 46.4 °F 82% 30.31 in 10.0 mi South 8.1 mph - N/A   Overcast
8:55 AM 51.8 °F 46.4 °F 82% 30.31 in 10.0 mi South 9.2 mph - N/A   Overcast
9:15 AM 51.8 °F 48.2 °F 88% 30.31 in 7.0 mi SSW 10.4 mph - N/A   Overcast
9:35 AM 51.8 °F 50.0 °F 94% 30.31 in 10.0 mi South 10.4 mph - N/A   Overcast
9:55 AM 53.6 °F 48.2 °F 82% 30.32 in 10.0 mi SSE 9.2 mph - N/A   Overcast
10:15 AM 51.8 °F 48.2 °F 88% 30.32 in 10.0 mi South 9.2 mph - N/A   Overcast
10:35 AM 51.8 °F 48.2 °F 88% 30.31 in 10.0 mi South 9.2 mph - N/A   Overcast
10:55 AM 53.6 °F 48.2 °F 82% 30.31 in 10.0 mi South 10.4 mph - N/A   Overcast
11:15 AM 53.6 °F 48.2 °F 82% 30.30 in 10.0 mi South 11.5 mph - N/A   Overcast
11:35 AM 53.6 °F 46.4 °F 77% 30.29 in 10.0 mi South 9.2 mph - N/A   Overcast
11:55 AM 53.6 °F 46.4 °F 77% 30.28 in 10.0 mi South 10.4 mph - N/A   Overcast
12:15 PM 55.4 °F 48.2 °F 77% 30.27 in 10.0 mi SSE 10.4 mph - N/A   Mostly Cloudy
12:35 PM 55.4 °F 48.2 °F 77% 30.26 in 10.0 mi SE 10.4 mph - N/A   Mostly Cloudy
12:55 PM 55.4 °F 48.2 °F 77% 30.25 in 10.0 mi SSE 11.5 mph 16.1 mph N/A   Overcast
1:15 PM 55.4 °F 46.4 °F 72% 30.23 in 10.0 mi SSE 11.5 mph - N/A   Overcast
1:35 PM 55.4 °F 46.4 °F 72% 30.24 in 10.0 mi SSE 11.5 mph - N/A   Overcast
1:55 PM 57.2 °F 46.4 °F 67% 30.23 in 10.0 mi SSE 12.7 mph 17.3 mph N/A   Overcast
2:15 PM 55.4 °F 46.4 °F 72% 30.22 in 10.0 mi SSE 12.7 mph 17.3 mph N/A   Mostly Cloudy
2:35 PM 55.4 °F 46.4 °F 72% 30.22 in 10.0 mi SSE 9.2 mph - N/A   Overcast
2:55 PM 55.4 °F 46.4 °F 72% 30.21 in 10.0 mi SSE 10.4 mph - N/A   Overcast
3:15 PM 55.4 °F 46.4 °F 72% 30.21 in 10.0 mi SSE 10.4 mph - N/A   Overcast
3:35 PM 55.4 °F 44.6 °F 67% 30.20 in 10.0 mi SSE 11.5 mph - N/A   Mostly Cloudy
3:55 PM 55.4 °F 44.6 °F 67% 30.19 in 10.0 mi SE 9.2 mph - N/A   Scattered Clouds
4:15 PM 55.4 °F 44.6 °F 67% 30.18 in 10.0 mi SE 9.2 mph - N/A   Mostly Cloudy
4:35 PM 53.6 °F 44.6 °F 72% 30.18 in 10.0 mi SE 8.1 mph - N/A   Overcast
4:55 PM 53.6 °F 44.6 °F 72% 30.18 in 10.0 mi SE 9.2 mph - N/A   Overcast
5:15 PM 53.6 °F 44.6 °F 72% 30.18 in 10.0 mi SE 9.2 mph - N/A   Overcast
5:35 PM 53.6 °F 44.6 °F 72% 30.18 in 10.0 mi SE 9.2 mph - N/A   Overcast
5:55 PM 53.6 °F 44.6 °F 72% 30.18 in 10.0 mi SE 10.4 mph - N/A   Overcast
6:15 PM 53.6 °F 44.6 °F 72% 30.17 in 10.0 mi SE 12.7 mph - N/A   Mostly Cloudy
6:35 PM 53.6 °F 44.6 °F 72% 30.17 in 10.0 mi SE 12.7 mph 17.3 mph N/A   Mostly Cloudy
6:55 PM 51.8 °F 44.6 °F 76% 30.16 in 10.0 mi SE 11.5 mph - N/A   Mostly Cloudy
7:15 PM 51.8 °F 44.6 °F 76% 30.15 in 10.0 mi SE 11.5 mph 17.3 mph N/A   Scattered Clouds
7:35 PM 53.6 °F 44.6 °F 72% 30.14 in 10.0 mi SE 10.4 mph - N/A   Clear
7:55 PM 53.6 °F 44.6 °F 72% 30.13 in 10.0 mi SE 11.5 mph - N/A   Mostly Cloudy
8:15 PM 53.6 °F 44.6 °F 72% 30.12 in 10.0 mi SE 10.4 mph - N/A   Mostly Cloudy
8:35 PM 53.6 °F 44.6 °F 72% 30.11 in 10.0 mi SE 10.4 mph 17.3 mph N/A   Mostly Cloudy
8:55 PM 53.6 °F 44.6 °F 72% 30.11 in 10.0 mi SE 13.8 mph - N/A   Overcast
9:15 PM 53.6 °F 46.4 °F 77% 30.10 in 10.0 mi SSE 12.7 mph - N/A   Overcast
9:35 PM 53.6 °F 44.6 °F 72% 30.09 in 10.0 mi SSE 16.1 mph - N/A   Light Drizzle
9:55 PM 53.6 °F 44.6 °F 72% 30.08 in 10.0 mi SE 12.7 mph 19.6 mph N/A   Overcast
10:15 PM 55.4 °F 44.6 °F 67% 30.07 in 10.0 mi SSE 15.0 mph - N/A   Overcast
10:35 PM 55.4 °F 44.6 °F 67% 30.07 in 10.0 mi SSE 15.0 mph 23.0 mph N/A   Overcast
10:55 PM 55.4 °F 44.6 °F 67% 30.06 in 10.0 mi SSE 17.3 mph 23.0 mph N/A   Overcast
11:15 PM 55.4 °F 44.6 °F 67% 30.05 in 10.0 mi SSE 15.0 mph 21.9 mph N/A   Overcast
11:35 PM 55.4 °F 44.6 °F 67% 30.04 in 10.0 mi SSE 13.8 mph 20.7 mph N/A   Overcast
11:55 PM 55.4 °F 44.6 °F 67% 30.04 in 10.0 mi SSE 11.5 mph 19.6 mph N/A   Overcast